This demonstration page uses our WeatherBlox Daily Observations layout. Learn more.

Left ArrowRight Arrow

39.01783, -85.05884

Hourly Observations for January 25, 2020

Temp ( °F °C ) Dew Point ( °F °C ) Humidity (%) Winds ( mph kmh ) Pressure ( in mb ) Visibility ( mi km ) Precip ( " mm )
12:52 am 00:52 Cloudy with Light Rain 39 3.9 36 2.2 89 89 WSW 3 6 29.87 1012 8 13 0.01 0.25
1:19 am 01:19 Cloudy 39 3.9 36 2.2 89 89 SW 9 15 29.89 1012 10 16 0.00 0.00
1:52 am 01:52 Cloudy with Light Rain 38 3.3 36 2.2 93 93 SW 12 19 29.86 1011 6 10 0.02 0.51
2:52 am 02:52 Cloudy with Drizzle 38 3.3 35 1.7 89 89 SW 9 15 29.88 1012 8 13 0.00 0.00
3:52 am 03:52 Cloudy 37 2.8 35 1.7 93 93 SW 6 9 29.88 1012 7 11 0.00 0.00
4:52 am 04:52 Cloudy 37 2.8 35 1.7 93 93 WSW 9 15 29.88 1012 10 16 0.00 0.00
5:30 am 05:30 Cloudy 37 2.8 34 1.1 89 89 WSW 9 15 29.93 1013 10 16 0.01 0.25
5:52 am 05:52 Cloudy 37 2.8 34 1.1 89 89 WSW 8 13 29.90 1013 10 16 0.01 0.25
6:24 am 06:24 Cloudy 37 2.8 33 0.6 86 86 WSW 9 15 29.95 1014 10 16 0.00 0.00
6:43 am 06:43 Cloudy 37 2.8 33 0.6 86 86 SW 9 15 29.95 1014 10 16 0.00 0.00
6:52 am 06:52 Cloudy 36 2.2 33 0.6 89 89 SW 12 19 29.92 1013 8 13 0.00 0.00
7:52 am 07:52 Cloudy 35 1.7 32 0 89 89 SW 8 13 29.95 1014 10 16 0.00 0.00
8:52 am 08:52 Cloudy 35 1.7 31 -0.6 85 85 SW 13 20 29.96 1015 9 14 0.00 0.00
9:52 am 09:52 Cloudy with Mist and Fog 35 1.7 32 0 89 89 SW 14 22 29.97 1015 5 8 0.00 0.00
10:52 am 10:52 Cloudy 35 1.7 32 0 89 89 WSW 9 15 29.98 1015 8 13 0.00 0.00
11:52 am 11:52 Cloudy with Light Snow 35 1.7 32 0 89 89 SW 12 19 29.98 1015 4 6 0.00 0.00
12:01 pm 12:01 Cloudy with Light Snow 35 1.7 32 0 89 89 WSW 9 15 30.01 1016 3 4 0.00 0.00
12:52 pm 12:52 Cloudy with Mist and Fog 35 1.7 32 0 89 89 SW 9 15 29.97 1015 3 4 0.00 0.00
1:33 pm 13:33 Cloudy with Mist and Fog 36 2.2 32 0 86 86 SW 14 22 29.99 1016 6 10 0.00 0.00
1:52 pm 13:52 Cloudy with Mist and Fog 35 1.7 31 -0.6 85 85 SW 14 22 29.96 1015 6 10 0.00 0.00
2:52 pm 14:52 Cloudy with Mist and Fog 35 1.7 31 -0.6 85 85 WSW 9 15 29.95 1014 5 8 0.00 0.00
3:20 pm 15:20 Cloudy with Mist and Fog 35 1.7 31 -0.6 85 85 SW 10 17 29.98 1015 3 4 0.00 0.00
3:35 pm 15:35 Cloudy with Light Snow 35 1.7 31 -0.6 85 85 SW 13 20 29.98 1015 3 4 0.00 0.00
3:52 pm 15:52 Cloudy with Mist and Fog 35 1.7 32 0 89 89 SW 9 15 29.96 1014 3 4 0.00 0.00
4:52 pm 16:52 Cloudy with Light Rain 35 1.7 31 -0.6 85 85 WSW 12 19 29.96 1015 3 4 0.00 0.00
5:52 pm 17:52 Cloudy with Mist and Fog 34 1.1 31 -0.6 89 89 SW 13 20 29.97 1015 3 4 0.00 0.00
6:52 pm 18:52 Cloudy 34 1.1 30 -1.1 85 85 SW 14 22 29.98 1015 3 4 0.00 0.00
7:09 pm 19:09 Cloudy with Mist and Fog 34 1.1 30 -1.1 85 85 WSW 12 19 30.01 1016 3 4 0.00 0.00
7:29 pm 19:29 Cloudy with Mist and Fog 34 1.1 30 -1.1 85 85 WSW 12 19 30.02 1017 3 4 0.00 0.00
7:37 pm 19:37 Cloudy with Mist and Fog 34 1.1 30 -1.1 85 85 WSW 12 19 30.02 1017 3 4 0.00 0.00
7:52 pm 19:52 Cloudy with Mist and Fog 33 0.6 31 -0.6 92 92 SW 9 15 29.99 1016 3 5 0.00 0.00
8:52 pm 20:52 Cloudy with Mist and Fog 33 0.6 30 -1.1 89 89 WSW 14 22 29.99 1016 5 8 0.01 0.25
9:52 pm 21:52 Cloudy with Mist and Fog 33 0.6 29 -1.7 85 85 WSW 10 17 30.00 1016 6 10 0.00 0.00
10:52 pm 22:52 Cloudy 32 0 29 -1.7 88 88 WSW 12 19 30.00 1016 8 13 0.00 0.00
11:52 pm 23:52 Cloudy with Drizzle 32 0 29 -1.7 88 88 WSW 15 24 30.00 1016 3 5 0.00 0.00

Powered by AerisWeather